Weather History for Coleman, TX

Change the Weather History Date:

Sunday, March 24, 2013

  Actual Average (KABI) Record (KABI)
Temperature  
Mean Temperature 42 °F 59 °F  
Max Temperature 53 °F 71 °F 93 °F (1988)
Min Temperature 32 °F 46 °F 26 °F (1974)
Degree Days  
Heating Degree Days 22 8  
Month to date heating degree days 249  
Since 1 July heating degree days 2382  
Cooling Degree Days 0 1  
Month to date cooling degree days 19  
Year to date cooling degree days 24  
Moisture  
Dew Point 21 °F    
Average Humidity 45    
Maximum Humidity 78    
Minimum Humidity 21    
Precipitation  
Precipitation 0.00 in 0.06 in 2.75 in (1943)
Month to date precipitation 1.36  
Year to date precipitation 3.74  
Sea Level Pressure  
Sea Level Pressure 30.12 in    
Wind  
Wind Speed 18 mph (North)    
Max Wind Speed 29 mph    
Max Gust Speed 39 mph    
Visibility 10 miles    
Events      
T = Trace of Precipitation, MM = Missing Value Source: NWS Daily Summary

Daily Weather History Graph

Daily Weather History Graph

Search for Another Location

Airport:

Trip Planner

Search our weather history database for the weather conditions in past years. The results will help you decide how hot, cold, wet, or windy it might be!

Date:

Astronomy

Mar. 24, 2013 Rise Set
Actual Time 7:35 AM CDT 7:52 PM CDT
Civil Twilight 7:11 AM CDT 8:16 PM CDT
Nautical Twilight 6:43 AM CDT 8:45 PM CDT
Astronomical Twilight 6:14 AM CDT 9:13 PM CDT
Moon 5:29 PM CDT (3/24) 5:38 AM CDT (3/24)
Length of Visible Light 13h 04m
Length of Day
12h 16m
Waxing Gibbous, 92% of the Moon is Illuminated
Mar 24
Waxing Gibbous
Mar 27
Full
Apr 2
Last Quarter
Apr 10
New
Apr 18
First Quarter

Hourly Weather History & Observations

Time (CDT) Temp. Windchill Dew Point Humidity Pressure Visibility Wind Dir Wind Speed Gust Speed Precip Events Conditions
12:15 AM 51.8 °F - 43.9 °F 74% 29.89 in 7.0 mi North 24.2 mph 31.1 mph N/A   Overcast
12:35 AM 51.4 °F - 43.0 °F 73% 29.91 in 7.0 mi North 28.8 mph 38.0 mph N/A   Overcast
12:55 AM 49.6 °F - 42.3 °F 76% 29.93 in 10.0 mi North 26.5 mph 38.0 mph N/A   Overcast
1:15 AM 45.7 °F 37.8 °F 39.0 °F 78% 29.97 in 10.0 mi North 20.7 mph 39.1 mph N/A   Overcast
1:35 AM 44.4 °F 35.1 °F 37.0 °F 75% 29.98 in 10.0 mi North 26.5 mph 32.2 mph N/A   Overcast
1:55 AM 44.2 °F 35.0 °F 34.5 °F 69% 30.00 in 10.0 mi North 25.3 mph 29.9 mph N/A   Overcast
2:15 AM 43.9 °F 35.4 °F 33.3 °F 66% 30.01 in 10.0 mi NNW 20.7 mph 33.4 mph N/A   Overcast
2:35 AM 42.3 °F 32.8 °F 30.2 °F 62% 30.02 in 10.0 mi North 23.0 mph 34.5 mph N/A   Overcast
2:55 AM 41.0 °F 30.5 °F 29.3 °F 63% 30.03 in 10.0 mi North 26.5 mph 34.5 mph N/A   Scattered Clouds
3:15 AM 39.9 °F 30.5 °F 29.1 °F 65% 30.04 in 10.0 mi NNW 19.6 mph 31.1 mph N/A   Clear
3:35 AM 39.0 °F 29.3 °F 27.0 °F 62% 30.06 in 10.0 mi North 19.6 mph 26.5 mph N/A   Clear
3:55 AM 38.3 °F 30.5 °F 27.1 °F 64% 30.06 in 10.0 mi North 12.7 mph 25.3 mph N/A   Clear
4:15 AM 37.8 °F 27.7 °F 26.6 °F 64% 30.07 in 10.0 mi NNW 19.6 mph 24.2 mph N/A   Clear
4:35 AM 36.7 °F 26.3 °F 24.4 °F 61% 30.07 in 10.0 mi North 19.6 mph 31.1 mph N/A   Clear
4:55 AM 36.0 °F 25.6 °F 23.9 °F 62% 30.07 in 10.0 mi North 18.4 mph 25.3 mph N/A   Clear
5:15 AM 35.6 °F 25.2 °F 23.4 °F 61% 30.09 in 10.0 mi NNW 18.4 mph 26.5 mph N/A   Clear
5:35 AM 35.2 °F 27.1 °F 23.4 °F 62% 30.10 in 10.0 mi NNW 11.5 mph 19.6 mph N/A   Clear
5:55 AM 34.7 °F 26.9 °F 23.4 °F 63% 30.11 in 10.0 mi NW 10.4 mph 18.4 mph N/A   Clear
6:15 AM 34.2 °F 26.2 °F 23.0 °F 64% 30.13 in 10.0 mi NNW 10.4 mph - N/A   Clear
6:35 AM 33.8 °F 23.5 °F 22.6 °F 64% 30.14 in 10.0 mi NNW 16.1 mph 21.9 mph N/A   Clear
6:55 AM 33.4 °F 23.9 °F 22.1 °F 63% 30.14 in 10.0 mi NNW 13.8 mph 18.4 mph N/A   Clear
7:15 AM 32.9 °F 22.0 °F 22.1 °F 65% 30.15 in 10.0 mi NNW 17.3 mph 23.0 mph N/A   Clear
7:35 AM 32.5 °F 22.7 °F 21.7 °F 64% 30.15 in 10.0 mi NNW 13.8 mph 19.6 mph N/A   Clear
7:55 AM 32.5 °F 22.3 °F 21.4 °F 64% 30.16 in 10.0 mi NNW 15.0 mph 25.3 mph N/A   Clear
8:15 AM 33.1 °F 21.9 °F 21.2 °F 62% 30.18 in 10.0 mi NNW 18.4 mph 25.3 mph N/A   Clear
8:35 AM 33.8 °F 22.8 °F 21.2 °F 60% 30.19 in 10.0 mi NNW 18.4 mph 24.2 mph N/A   Clear
8:55 AM 34.7 °F 23.7 °F 21.0 °F 57% 30.20 in 10.0 mi NNW 19.6 mph 25.3 mph N/A   Clear
9:15 AM 35.6 °F 24.8 °F 20.8 °F 55% 30.20 in 10.0 mi NNW 19.6 mph 26.5 mph N/A   Clear
9:35 AM 36.3 °F 24.7 °F 20.3 °F 52% 30.21 in 10.0 mi NNW 24.2 mph 27.6 mph N/A   Clear
9:55 AM 37.8 °F 27.7 °F 20.3 °F 49% 30.21 in 10.0 mi NNW 19.6 mph 27.6 mph N/A   Clear
10:15 AM 38.7 °F 28.8 °F 20.3 °F 48% 30.21 in 10.0 mi North 19.6 mph 27.6 mph N/A   Clear
10:35 AM 39.4 °F 30.4 °F 19.9 °F 46% 30.21 in 10.0 mi NW 17.3 mph 25.3 mph N/A   Clear
10:55 AM 40.5 °F 31.2 °F 20.1 °F 44% 30.22 in 10.0 mi North 19.6 mph 28.8 mph N/A   Clear
11:15 AM 41.0 °F 32.5 °F 20.1 °F 43% 30.22 in 10.0 mi North 17.3 mph 24.2 mph N/A   Clear
11:35 AM 42.3 °F 33.3 °F 19.9 °F 41% 30.21 in 10.0 mi North 20.7 mph 28.8 mph N/A   Clear
11:55 AM 43.7 °F 35.4 °F 19.6 °F 38% 30.21 in 10.0 mi North 19.6 mph 26.5 mph N/A   Clear
12:15 PM 44.2 °F 36.4 °F 19.6 °F 37% 30.21 in 10.0 mi North 18.4 mph 28.8 mph N/A   Clear
12:35 PM 45.0 °F 37.6 °F 19.9 °F 37% 30.21 in 10.0 mi NNW 17.3 mph 24.2 mph N/A   Clear
12:55 PM 46.2 °F 40.8 °F 19.8 °F 35% 30.20 in 10.0 mi North 11.5 mph 23.0 mph N/A   Clear
1:15 PM 46.8 °F - 19.9 °F 35% 30.20 in 10.0 mi NNW 15.0 mph 24.2 mph N/A   Clear
1:35 PM 47.7 °F - 19.8 °F 33% 30.18 in 10.0 mi NNW 11.5 mph 21.9 mph N/A   Clear
1:55 PM 48.7 °F - 19.8 °F 32% 30.18 in 10.0 mi North 13.8 mph 23.0 mph N/A   Clear
2:15 PM 48.7 °F - 19.4 °F 31% 30.17 in 10.0 mi NNW 15.0 mph 23.0 mph N/A   Clear
2:35 PM 49.8 °F - 19.8 °F 31% 30.16 in 10.0 mi North 15.0 mph 24.2 mph N/A   Clear
2:55 PM 50.5 °F - 19.2 °F 29% 30.14 in 10.0 mi NNW 15.0 mph 21.9 mph N/A   Clear
3:15 PM 51.1 °F - 18.9 °F 28% 30.13 in 10.0 mi North 12.7 mph 20.7 mph N/A   Clear
3:35 PM 51.3 °F - 19.0 °F 28% 30.12 in 10.0 mi NNW 17.3 mph 23.0 mph N/A   Clear
3:55 PM 52.3 °F - 18.7 °F 27% 30.11 in 10.0 mi North 18.4 mph 23.0 mph N/A   Clear
4:15 PM 52.3 °F - 19.0 °F 27% 30.10 in 10.0 mi North 16.1 mph 23.0 mph N/A   Clear
4:35 PM 53.4 °F - 18.3 °F 25% 30.09 in 10.0 mi North 20.7 mph 28.8 mph N/A   Clear
4:55 PM 53.1 °F - 18.1 °F 25% 30.08 in 10.0 mi North 12.7 mph 21.9 mph N/A   Clear
5:15 PM 52.9 °F - 17.4 °F 25% 30.08 in 10.0 mi NNE 15.0 mph 23.0 mph N/A   Clear
5:35 PM 53.1 °F - 16.0 °F 23% 30.07 in 10.0 mi North 17.3 mph 20.7 mph N/A   Clear
5:55 PM 52.7 °F - 14.9 °F 22% 30.07 in 10.0 mi North 12.7 mph 20.7 mph N/A   Clear
6:15 PM 52.9 °F - 13.8 °F 21% 30.07 in 10.0 mi North 13.8 mph 21.9 mph N/A   Clear
6:35 PM 52.2 °F - 13.8 °F 22% 30.07 in 10.0 mi NNE 11.5 mph 19.6 mph N/A   Clear
6:55 PM 51.8 °F - 13.5 °F 22% 30.08 in 10.0 mi North 10.4 mph - N/A   Clear
7:15 PM 50.7 °F - 14.4 °F 24% 30.08 in 10.0 mi NNE 13.8 mph - N/A   Clear
7:35 PM 49.3 °F - 13.1 °F 24% 30.08 in 10.0 mi NNE 10.4 mph - N/A   Clear
7:55 PM 47.1 °F - 13.8 °F 26% 30.09 in 10.0 mi NNE 8.1 mph - N/A   Clear
8:15 PM 45.3 °F 41.6 °F 13.8 °F 28% 30.10 in 10.0 mi NNE 6.9 mph - N/A   Clear
8:35 PM 43.3 °F 39.2 °F 13.8 °F 30% 30.11 in 10.0 mi NNE 6.9 mph - N/A   Clear
8:55 PM 42.3 °F 37.9 °F 13.1 °F 31% 30.11 in 10.0 mi NNE 6.9 mph - N/A   Clear
9:15 PM 41.4 °F 36.8 °F 12.9 °F 31% 30.12 in 10.0 mi NNE 6.9 mph - N/A   Clear
9:35 PM 39.6 °F 35.4 °F 12.9 °F 34% 30.13 in 10.0 mi NNE 5.8 mph - N/A   Clear
9:55 PM 39.2 °F 34.2 °F 12.7 °F 34% 30.14 in 10.0 mi NNE 6.9 mph - N/A   Clear
10:15 PM 38.5 °F - 12.4 °F 34% 30.15 in 10.0 mi Calm Calm - N/A   Clear
10:35 PM 38.1 °F 35.7 °F 11.5 °F 33% 30.15 in 10.0 mi NNE 3.5 mph - N/A   Clear
10:55 PM 38.1 °F - 11.7 °F 34% 30.16 in 10.0 mi Calm Calm - N/A   Clear
11:15 PM 37.9 °F - 11.5 °F 34% 30.16 in 10.0 mi Calm Calm - N/A   Clear
11:35 PM 38.3 °F 35.9 °F 11.7 °F 34% 30.17 in 10.0 mi North 3.5 mph - N/A   Clear
11:55 PM 35.6 °F 32.8 °F 11.7 °F 37% 30.18 in 10.0 mi North 3.5 mph - N/A   Clear